CANAKKALE current weather conditions

sailwx.info

Wind from 030 at 5 knots

Air temperature 3.0° C
Visibility: greater than 5.4 NM
Dewpoint 1.0° C

Last reported at 2019-Dec-06 19:50 UTC.
Time now 2019-Dec-06 21:08 UTC

Location: N 40°08' E 026°24'.
View on Google Maps.

See reports from other nearby stations

  
Tides and Currents Weather Stations Pressure Air Temp Water Temp Dewpoint Dewpoint Depression Visibility Wind Speed Wind Dir Waves Ship Positions
date/time (UTC)wind fromknots sea level pressurealtimeterstation pressurevisibilityair tempwater tempwave heightnotes
2019-Dec-06 19:50 030 5 5.4 3.0
2019-Dec-06 18:50 080 5 5.4 3.0
2019-Dec-06 17:50 030 5 5.4 5.0
2019-Dec-06 16:50 040 4 5.4 6.0
2019-Dec-06 15:50 070 5 5.4 7.0
2019-Dec-06 14:50 040 6 5.410.0
2019-Dec-06 13:50 030 9 5.411.0
2019-Dec-06 12:50 020 8 5.412.0
2019-Dec-06 11:50 020 11 5.412.0
2019-Dec-06 10:50 020 11 5.412.0
2019-Dec-06 09:50 020 7 5.412.0
2019-Dec-06 08:50 030 9 5.411.0
2019-Dec-06 07:50 090 5 5.4 8.0
2019-Dec-06 06:50 040 2 5.4 6.0
2019-Dec-06 05:50 040 4 5.4 2.0 Mist.
2019-Dec-06 04:50 040 4 3.2 2.0
2019-Dec-06 04:08 040 5 1.6 2.0 Mist.
2019-Dec-06 03:50 040 4 5.4 2.0
2019-Dec-06 02:50 040 6 5.4 2.0
2019-Dec-06 01:50 030 5 5.4 3.0
2019-Dec-05 21:50 060 7 5.4 5.0
2019-Dec-05 20:50 070 6 5.4 6.0
2019-Dec-05 19:50 040 8 5.4 8.0
2019-Dec-05 18:50 040 9 5.4 8.0
2019-Dec-05 17:50 040 11 5.4 9.0
2019-Dec-05 16:50 050 7 5.4 8.0
2019-Dec-05 15:50 040 12 5.4 8.0
2019-Dec-05 14:50 040 11 5.4 9.0
2019-Dec-05 13:50 030 9 5.4 9.0
2019-Dec-05 12:50 030 11 5.4 9.0
2019-Dec-05 12:19 040 12 5.4 9.0 Light rain showers.
2019-Dec-05 11:50 030 11 5.4 9.0
2019-Dec-05 10:50 030 12 5.4 9.0
2019-Dec-05 09:50 040 8 5.4 8.0
2019-Dec-05 08:50 040 12 5.4 8.0
2019-Dec-05 07:50 070 8 5.4 7.0
2019-Dec-05 06:50 080 5 5.4 5.0
2019-Dec-05 05:50 080 5 5.4 4.0
2019-Dec-05 04:50 090 8 5.4 4.0
2019-Dec-05 03:50 070 7 5.4 3.0
2019-Dec-05 02:50 5.4 4.0
2019-Dec-05 01:50 070 6 5.4 3.0
2019-Dec-04 23:50 5.4 4.0
2019-Dec-04 22:50 060 6 5.4 5.0
2019-Dec-04 21:50 5.4 5.0